Regional Weather Roundup
Issued by NWS

Home | Current Version | Previous Version | Graphics & Text | Print | Product List | Glossary On
Versions: 1 2 3 4 5 6 7 8 9 10 11 12 13 14 15 16 17 18 19 20 21 22 23 24 25 26 27 28 29 30 31 32 33 34 35 36 37 38 39 40 41 42 43 44 45 46 47 48 49 50
000
ASUS43 KBIS 220410
RWRND

NORTH DAKOTA REGIONAL WEATHER ROUNDUP
NATIONAL WEATHER SERVICE BISMARCK ND
1000 PM CST SAT JAN 21 2017

NOTE: "FAIR" INDICATES FEW OR NO CLOUDS BELOW 12,000 FEET WITH NO
SIGNIFICANT WEATHER AND/OR OBSTRUCTIONS TO VISIBILITY.


NDZ001>003-009>011-017-220500-
NORTHWEST NORTH DAKOTA

CITY           SKY/WX    TMP DP  RH WIND       PRES   REMARKS
WILLISTON      CLOUDY    30  28  92 W8        29.58R
MINOT          CLOUDY    29  26  89 SW7       29.53R
MINOT AFB      CLOUDY    30  28  92 W9        29.52R
$$

NDZ018>021-031>035-040>046-220500-
SOUTHWEST NORTH DAKOTA

CITY           SKY/WX    TMP DP  RH WIND       PRES   REMARKS
BISMARCK       FAIR      21  18  88 CALM      29.57R
DICKINSON      FAIR      22  17  81 W14       29.54R WCI   9
GARRISON         N/A     25  23  92 W5        29.54R WCI  19
HETTINGER ARPT CLEAR     21  18  88 W13       29.59R WCI   9
$$

NDZ004>008-012>016-024-026-027-054-220500-
NORTHEAST NORTH DAKOTA

CITY           SKY/WX    TMP DP  RH WIND       PRES   REMARKS
GRAND FORKS    FOG       35  33  92 E3        29.55R VSB 3/4
GRND FRKS AFB  FOG       32  32 100 CALM      29.55S VSB 3/4
DEVILS LAKE    CLOUDY    32  31  96 SW6       29.55R
$$

NDZ022-023-025-028>030-036>039-047>053-220500-
SOUTHEAST NORTH DAKOTA

CITY           SKY/WX    TMP DP  RH WIND       PRES   REMARKS
FARGO          FOG       36  34  92 CALM      29.55R VSB 1/4
JAMESTOWN      CLOUDY    33  31  92 W5        29.54R
$$




USA.gov is the U.S. government's official web portal to all federal, state and local government web resources and services.